User: anonymous   Login
Location: Unspecified
(0.0000°N, 0.0000°E)
Time: 06:46:56
(UTC+00:00)
Language:

CBERS-1 - Orbit

View from above orbital plane
View from above orbital plane
View from above satellite
View from above satellite

Ground track
Ground track

The orbit data is extracted from the following two-line orbital elements,

1 25940U 99057A   17087.84113476 +.00000029 +00000-0 +25325-4 0  9999
2 25940 098.4847 029.0053 0004006 234.5464 125.5348 14.35378946914281
Epoch (UTC): 28 March 2017 20:11:14
Eccentricity: 0.0004006
inclination: 98.4847°
perigee height: 771 km
apogee height: 776 km
right ascension of ascending node: 29.0053°
argument of perigee: 234.5464°
revolutions per day: 14.35378946
mean anomaly at epoch: 125.5348°
orbit number at epoch: 91428

The dashed part of the orbit path shows where the satellite is in the earth's shadow,  

DLR